Vorticity
nan nan nan nan nan nan nan nan nan nan nan nan nan nan nan nan nan nan nan nan nan nan nan nan nan nan nan nan nan nan nan nan nan nan nan nan nan nan nan nan nan nan nan
nan 9 9 6 5 5 4 3 4 5 4 5 5 6 5 4 4 4 4 4 5 6 6 5 4 5 6 6 5 6 8 7 5 4 2 2 5 5 4 3 9 8 nan
nan 14 8 6 6 5 5 4 4 4 4 4 5 5 4 4 4 3 5 4 9 7 2 6 7 4 6 7 4 4 4 5 4 3 2 4 6 5 5 5 7 5 nan
nan 11 9 8 6 6 6 5 4 4 4 3 4 5 4 4 3 3 7 11 11 9 5 3 4 5 6 5 3 4 4 4 5 1 6 6 4 7 5 5 5 5 nan
nan 14 11 8 7 6 6 6 5 5 4 4 3 4 5 5 4 3 5 11 9 7 5 4 4 4 5 5 4 3 4 3 2 3 5 7 4 8 5 6 5 2 nan
nan 17 11 9 8 7 7 6 7 7 6 5 5 4 4 5 5 5 4 8 8 4 4 4 4 4 4 5 4 3 6 5 1 6 4 4 6 5 6 5 4 5 nan
nan 9 5 9 13 10 7 7 7 7 7 6 6 5 4 4 5 5 5 6 5 3 4 5 5 5 4 5 4 3 6 7 5 4 5 4 10 3 5 5 5 4 nan
nan 5 4 4 7 11 12 12 10 8 7 7 7 7 6 5 5 6 6 5 4 4 4 5 5 6 5 5 4 4 6 7 5 5 5 6 9 6 5 5 5 4 nan
nan 6 6 5 4 4 7 10 10 11 10 8 7 7 7 7 7 7 8 8 6 6 5 5 5 6 6 6 5 5 5 4 3 6 6 9 7 5 5 5 5 5 nan
nan 5 6 6 7 5 4 4 6 9 9 9 9 9 9 7 6 6 9 11 8 7 6 6 6 6 7 6 6 7 6 4 6 5 7 11 6 6 5 5 5 5 nan
nan 5 6 7 7 7 7 5 4 4 10 13 10 7 7 7 8 9 4 8 9 8 8 7 6 7 7 6 9 8 5 5 8 5 8 12 4 5 5 5 5 5 nan
nan 5 6 7 7 9 8 6 8 8 7 7 6 9 10 9 9 8 11 9 6 8 8 10 11 9 4 7 10 6 5 6 7 7 8 9 5 5 5 5 6 5 nan
nan 6 6 7 7 8 8 9 8 7 8 7 8 7 7 10 10 8 9 7 12 8 6 10 9 7 5 4 5 7 6 6 7 8 10 9 7 6 5 5 6 7 nan
nan 6 5 7 7 8 8 8 7 6 7 8 7 7 9 8 7 6 8 9 8 6 8 7 7 9 10 6 5 4 6 5 4 7 13 11 8 7 6 6 5 6 nan
nan 5 5 6 7 6 7 7 7 7 6 6 7 7 7 7 8 8 9 7 5 10 10 7 6 8 9 9 9 8 7 7 4 3 12 10 9 7 6 6 5 5 nan
nan 5 5 7 7 6 6 7 8 7 7 7 7 6 5 7 7 7 8 7 8 8 6 9 10 9 9 10 9 8 9 7 9 5 5 9 12 8 8 6 5 6 nan
nan 5 6 7 7 7 8 9 9 8 8 8 7 7 8 6 6 6 7 8 8 7 8 9 9 9 10 9 11 10 10 9 9 8 7 7 11 12 11 9 7 7 nan
nan 5 6 8 7 8 9 9 9 8 9 9 9 9 9 9 8 8 8 8 7 8 9 8 9 8 8 9 10 10 10 11 9 11 8 8 6 13 16 11 10 10 nan
nan 6 6 8 9 9 10 10 9 9 9 9 10 9 8 10 11 10 8 8 9 8 8 8 7 7 7 9 9 8 10 10 10 11 9 10 9 8 8 15 16 11 nan
nan 6 8 8 9 10 11 11 10 9 8 9 10 7 9 12 11 10 10 9 10 9 8 7 7 7 8 9 9 9 8 7 9 10 10 10 12 9 7 8 11 14 nan
nan 6 8 9 10 10 9 8 9 8 8 9 8 8 11 10 11 12 10 10 9 10 9 7 8 9 10 9 8 10 11 9 8 7 8 10 8 8 8 9 7 9 nan
nan 8 8 10 10 11 10 8 8 7 8 9 9 9 10 9 11 12 9 9 9 10 11 10 8 8 9 8 6 7 10 13 13 10 7 9 7 9 10 10 8 6 nan
nan 6 7 8 10 10 9 9 8 9 8 8 8 9 8 10 11 11 10 9 9 10 10 10 11 8 8 11 8 4 4 6 10 14 9 10 11 8 11 13 11 9 nan
nan 6 6 7 9 9 8 8 9 10 9 8 8 7 7 10 11 12 12 11 10 10 9 7 8 10 10 11 11 9 4 6 7 7 9 9 12 10 12 12 12 12 nan
nan 5 5 6 8 8 9 9 9 9 9 8 7 7 10 10 11 12 12 12 11 9 9 10 10 9 8 9 9 10 12 8 9 8 9 7 6 11 13 12 11 11 nan
nan nan nan nan nan nan nan nan nan nan nan nan nan nan nan nan nan nan nan nan nan nan nan nan nan nan nan nan nan nan nan nan nan nan nan nan nan nan nan nan nan nan nan
CAPE
1150 1371 1603 1634 1519 1669 1409 1122 1118 770 376 232 170 139 170 91 253 220 488 686 213 54 0 0 50 441 600 665 519 511 396 423 268 23 66 12 0 1 0 0 0 10 0
676 1038 1487 1431 1475 1509 1418 1039 1183 1084 559 279 164 97 106 394 453 481 561 641 649 391 132 18 37 288 424 345 653 727 612 313 50 8 13 0 2 1 1 0 1 2 2
599 1190 1373 1533 1597 1665 1537 1310 1098 1173 926 478 340 367 336 466 500 526 546 563 851 742 154 435 2 58 474 571 635 426 221 43 7 1 0 0 0 2 2 0 3 5 6
730 1300 1323 1532 1573 1509 1319 1488 1355 1226 1135 872 458 289 465 675 733 628 599 1023 878 367 415 358 361 252 447 538 436 315 76 0 0 0 0 0 0 1 4 4 6 7 6
1298 1434 1398 1361 1272 1409 1400 1409 1381 1430 1349 1133 908 559 312 266 371 477 489 1047 934 824 397 319 220 300 323 491 443 345 118 0 0 0 0 0 1 2 3 3 4 0 2
857 1106 953 1164 1191 1248 1374 1403 1348 1310 1256 1323 1235 920 744 507 306 328 388 840 1056 855 543 398 177 139 225 465 547 144 0 83 0 1 0 0 0 0 4 0 0 3 3
0 844 923 1022 1007 1072 1087 1122 1111 1134 1163 1136 1334 1316 1070 868 661 495 474 460 973 718 485 321 188 158 246 367 438 115 0 0 0 0 0 0 0 0 3 3 4 8 8
0 0 0 0 197 758 884 951 974 895 922 1034 1134 1175 1191 1117 994 866 895 639 573 843 616 398 225 102 191 278 411 204 0 0 0 0 0 0 0 0 3 3 1 4 3
0 0 0 0 0 0 29 457 618 759 900 969 1094 1154 1064 1080 1213 1186 1264 1066 753 654 909 708 424 186 42 135 225 410 0 0 0 0 0 0 0 17 6 3 0 1 1
0 0 0 0 0 0 0 0 0 107 370 467 596 545 522 650 699 902 1030 940 1191 1066 985 857 685 442 154 238 195 146 0 0 0 0 0 0 0 0 54 6 2 2 3
0 0 0 0 0 0 0 0 0 0 0 36 262 301 390 646 699 730 626 390 609 975 1041 1001 851 672 441 85 80 29 0 0 0 0 0 0 0 0 1 40 1 1 3
0 0 0 0 0 0 0 0 0 0 0 0 0 96 525 643 572 491 432 257 128 358 565 874 1011 736 239 354 54 0 1 0 0 0 0 0 0 0 24 144 297 21 0
0 0 0 0 0 0 0 0 0 0 0 0 0 0 0 0 476 983 935 758 757 39 563 419 499 748 739 854 616 7 0 0 0 0 0 0 0 0 56 129 517 405 164
0 0 0 0 0 0 0 0 0 0 0 0 0 0 0 0 0 0 784 878 834 639 587 475 346 227 336 538 583 455 65 0 0 0 0 0 0 0 15 81 366 723 577
0 0 0 0 0 0 0 0 0 0 0 0 0 0 0 0 0 0 0 175 356 699 679 617 532 419 312 283 397 414 382 250 1 0 0 0 0 0 0 28 185 314 565
0 0 0 0 0 0 0 0 0 0 0 0 0 0 0 0 0 0 0 0 0 71 346 681 655 354 194 206 307 470 481 459 397 62 0 0 0 0 0 0 18 185 397
0 0 0 0 0 0 0 0 0 0 0 0 0 0 0 0 0 0 0 0 0 0 36 526 560 672 524 409 299 253 373 612 612 483 216 2 0 0 0 1 10 97 342
0 0 0 0 0 0 0 0 0 0 0 0 0 0 0 0 0 0 0 0 0 0 0 42 339 460 452 498 460 382 424 437 542 714 734 427 26 0 0 0 99 226 482
0 0 0 0 0 0 0 0 0 0 0 0 0 0 0 0 0 0 0 0 0 0 0 0 4 277 433 395 472 558 393 350 290 394 349 405 265 0 0 0 0 15 139
0 0 0 0 0 0 0 0 0 0 0 1 0 0 0 0 0 0 0 0 0 0 0 0 0 12 392 503 423 370 392 245 165 191 172 15 34 12 0 0 0 0 0
0 0 0 0 0 0 0 4 5 8 4 7 5 1 0 0 0 0 0 0 0 0 0 1 5 8 70 453 419 365 232 318 192 63 62 4 3 1 0 1 8 47 2
0 0 0 0 0 0 1 4 3 12 3 4 7 3 2 1 0 0 0 0 0 0 0 0 4 4 27 348 334 342 340 579 641 476 534 77 120 31 35 22 28 19 4
0 0 0 0 0 0 4 0 1 6 4 1 4 3 5 0 0 0 0 0 0 1 5 7 15 18 29 70 411 669 513 300 423 721 839 746 629 329 296 358 115 5 0
0 0 0 0 0 0 2 4 4 8 10 4 2 2 9 2 0 0 0 0 2 25 47 59 78 139 196 145 398 639 798 504 559 363 479 387 422 255 312 381 205 79 115
0 0 0 0 0 0 2 5 4 9 8 5 2 1 0 7 8 0 0 0 0 0 19 7 38 126 239 363 504 501 593 977 874 503 390 571 361 298 440 307 533 275 8
0 0 0 0 0 0 0 2 5 7 1 1 1 2 3 3 1 9 11 4 0 0 7 64 69 93 168 500 584 595 545 442 552 576 479 510 650 498 230 84 21 1 0